Terug naar catalogus

CZ-3B DEB

ActiefGTO
NORAD 42463·DEBRIS·🇨🇳 China

Gelanceerd Sep 4, 2010 vanaf Xichang Satellite Launch Center

Loading…

TLE

VersSource: Space-Track

Epoch: Sep 14, 2026, 12:12 UTC

1 42463U 10042AE  26257.50881311 -.00000003  00000-0  27155-2 0  9991
2 42463  25.4626 345.7203 7462192 158.9375 354.4849  1.93055583  3222

Volg CZ-3B DEB in realtime met AllMySat

Download on the App Store